Date String (YYYY-MM-DD hh:mm:ss) UTC,Instrument flags,Ambient pressure (hPa),Sample flow (lpm),Bypass flow (lpm),Sample temperature (°C),Ambient temperature (°C),ASC tube jacket temperature (°C),LED temperature (°C),Box temperature (°C),Sample RH (%),Span deviation,Mass concentration (μg/m³),Mass concentration (μg/m³),Mass concentration (μg/m³)
DateTimeUTC,F1_M11,P_M11,Q1_M11,Q2_M11,T1_M11,T2_M11,T3_M11,T4_M11,T5_M11,U1_M11,ZSPAN_M11,X2_M11,X0_M11,X1_M11
2022-11-23 15:00:00,,0819.9,4.99,0.00,22.2,20.8,00.0,31.1,24.0,06.3,0000.0,0000.60,0001.83,0000.44
2022-11-23 15:01:00,,0819.9,4.99,0.00,22.1,20.8,00.0,31.1,23.9,06.5,0000.0,0000.59,0001.80,0000.44
2022-11-23 15:02:00,,0819.9,5.00,0.00,22.1,20.8,00.0,31.1,23.9,05.9,0000.0,0000.56,0001.74,0000.43
2022-11-23 15:03:00,,0819.9,5.00,0.00,22.1,20.7,00.0,31.1,23.8,06.0,0000.0,0000.56,0001.10,0000.42
2022-11-23 15:04:00,,0819.9,5.00,0.00,22.1,20.7,00.0,31.1,23.9,05.8,0000.0,0000.54,0000.83,0000.42
2022-11-23 15:05:00,,0819.9,5.01,0.00,22.1,20.7,00.0,31.1,23.9,05.8,0000.0,0000.55,0000.86,0000.42
2022-11-23 15:06:00,,0819.9,5.00,0.00,22.1,20.7,00.0,31.1,23.9,05.8,0000.0,0000.59,0000.95,0000.45
2022-11-23 15:07:00,,0819.9,5.00,0.00,22.1,20.6,00.0,31.1,23.9,05.7,0000.0,0000.65,0001.00,0000.50
2022-11-23 15:08:00,,0819.9,5.00,0.00,22.0,20.6,00.0,31.1,23.8,05.5,0000.0,0000.70,0001.06,0000.56
2022-11-23 15:09:00,,0819.9,4.99,0.00,22.0,20.5,00.0,31.0,23.8,05.6,0000.0,0000.77,0001.20,0000.62
2022-11-23 15:10:00,,0819.9,5.00,0.00,22.0,20.5,00.0,31.0,23.7,05.9,0000.0,0000.88,0001.36,0000.70
2022-11-23 15:11:00,,0819.9,5.01,0.00,22.0,20.4,00.0,31.0,23.8,05.8,0000.0,0000.98,0002.06,0000.79
2022-11-23 15:12:00,,0819.9,5.00,0.00,22.0,20.5,00.0,31.0,23.7,05.5,0000.0,0001.09,0002.30,0000.88
2022-11-23 15:13:00,,0819.9,5.01,0.00,22.0,20.5,00.0,31.0,23.6,06.0,0000.0,0001.18,0002.43,0000.97
2022-11-23 15:14:00,,0820.0,5.00,0.00,21.9,20.5,00.0,31.0,23.7,05.8,0000.0,0001.26,0003.60,0001.06
2022-11-23 15:15:00,,0819.9,4.99,0.00,21.9,20.5,00.0,31.0,23.8,05.7,0000.0,0001.35,0003.96,0001.13
2022-11-23 15:16:00,,0819.9,4.99,0.00,21.9,20.5,00.0,31.0,23.8,05.8,0000.0,0001.42,0004.22,0001.21
2022-11-23 15:17:00,,0820.0,5.00,0.00,21.9,20.5,00.0,30.9,23.7,06.0,0000.0,0001.45,0004.24,0001.26
2022-11-23 15:18:00,,0820.0,5.02,0.00,21.9,20.5,00.0,30.9,23.7,06.1,0000.0,0001.47,0004.26,0001.28
2022-11-23 15:19:00,,0820.0,4.97,0.00,21.9,20.5,00.0,30.9,23.7,06.6,0000.0,0001.56,0004.42,0001.33
2022-11-23 15:20:00,,0819.9,5.01,0.00,21.9,20.5,00.0,30.9,23.7,06.3,0000.0,0001.65,0005.01,0001.41
2022-11-23 15:21:00,,0820.0,5.01,0.00,21.9,20.5,00.0,30.9,23.5,06.0,0000.0,0001.68,0005.07,0001.43
2022-11-23 15:22:00,,0820.0,4.99,0.00,21.9,20.4,00.0,30.9,23.5,06.4,0000.0,0001.70,0004.60,0001.44
2022-11-23 15:23:00,,0819.9,4.99,0.00,21.9,20.4,00.0,30.9,23.5,05.8,0000.0,0001.73,0004.55,0001.48
2022-11-23 15:24:00,,0819.9,5.01,0.00,21.9,20.4,00.0,30.9,23.5,05.1,0000.0,0001.72,0004.57,0001.46
2022-11-23 15:25:00,,0819.9,5.00,0.00,21.8,20.4,00.0,30.9,23.5,05.7,0000.0,0001.68,0003.62,0001.43
2022-11-23 15:26:00,,0820.0,4.99,0.00,21.8,20.4,00.0,30.8,23.5,06.1,0000.0,0001.66,0003.20,0001.42
2022-11-23 15:27:00,,0819.9,5.02,0.00,21.8,20.3,00.0,30.9,23.5,05.3,0000.0,0001.65,0002.96,0001.40
2022-11-23 15:28:00,,0819.9,5.00,0.00,21.8,20.3,00.0,30.8,23.4,05.2,0000.0,0001.64,0002.99,0001.37
2022-11-23 15:29:00,,0819.9,4.99,0.00,21.8,20.3,00.0,30.8,23.4,05.4,0000.0,0001.63,0003.02,0001.35
2022-11-23 15:30:00,,0819.9,5.00,0.00,21.8,20.5,00.0,30.8,23.5,05.3,0000.0,0001.54,0002.94,0001.30
2022-11-23 15:31:00,,0819.9,5.01,0.00,21.9,21.6,00.0,30.7,23.8,05.4,0000.0,0001.45,0002.56,0001.21
2022-11-23 15:32:00,,0819.9,4.99,0.00,22.0,22.4,00.0,30.8,24.1,06.0,0000.0,0001.35,0002.35,0001.13
2022-11-23 15:33:00,,0820.0,4.99,0.00,22.1,22.2,00.0,30.8,24.2,06.3,0000.0,0001.26,0002.20,0001.08
2022-11-23 15:34:00,,0820.0,5.00,0.00,22.1,21.9,00.0,30.9,24.1,06.4,0000.0,0001.16,0002.02,0001.00
2022-11-23 15:35:00,,0820.1,5.02,0.00,22.1,21.7,00.0,30.9,24.1,06.0,0000.0,0001.12,0001.89,0000.96
2022-11-23 15:36:00,,0820.2,4.99,0.00,22.2,21.6,00.0,31.0,24.1,08.8,0000.0,0001.31,0002.29,0001.08
2022-11-23 15:37:00,,0820.1,4.99,0.00,22.2,21.5,00.0,31.0,24.1,09.2,0000.0,0001.72,0003.20,0001.36
2022-11-23 15:38:00,,0820.1,5.00,0.00,22.2,21.4,00.0,31.0,24.1,08.2,0000.0,0002.00,0004.08,0001.55
2022-11-23 15:39:00,,0820.1,5.01,0.00,22.2,21.4,00.0,31.0,24.1,07.0,0000.0,0002.05,0004.58,0001.59
2022-11-23 15:40:00,,0820.1,5.01,0.00,22.2,21.3,00.0,31.0,24.1,07.7,0000.0,0002.21,0004.79,0001.70
2022-11-23 15:41:00,,0820.1,5.00,0.00,22.2,21.3,00.0,31.0,24.2,07.6,0000.0,0002.47,0006.15,0001.86
2022-11-23 15:42:00,,0820.1,5.00,0.00,22.3,21.3,00.0,31.0,24.2,08.1,0000.0,0002.78,0007.16,0002.09
2022-11-23 15:43:00,,0820.1,5.00,0.00,22.3,21.3,00.0,31.1,24.2,07.7,0000.0,0003.04,0007.47,0002.26
2022-11-23 15:44:00,,0820.0,5.00,0.00,22.3,21.3,00.0,31.1,24.1,07.6,0000.0,0003.20,0007.74,0002.38
2022-11-23 15:45:00,,0820.1,5.00,0.00,22.3,21.2,00.0,31.1,24.2,06.7,0000.0,0003.32,0008.00,0002.48
2022-11-23 15:46:00,,0820.1,5.00,0.00,22.3,21.3,00.0,31.1,24.2,08.1,0000.0,0003.48,0008.41,0002.65
2022-11-23 15:47:00,,0820.2,5.00,0.00,22.3,21.3,00.0,31.1,24.1,08.7,0000.0,0003.59,0009.05,0002.83
2022-11-23 15:48:00,,0820.1,5.00,0.00,22.3,21.3,00.0,31.1,24.1,08.2,0000.0,0003.53,0008.85,0002.79
2022-11-23 15:49:00,,0820.2,5.00,0.00,22.3,21.3,00.0,31.2,24.2,08.4,0000.0,0003.50,0009.59,0002.76
2022-11-23 15:50:00,,0820.2,5.00,0.00,22.3,21.2,00.0,31.2,24.2,08.5,0000.0,0003.58,0010.25,0002.88
2022-11-23 15:51:00,,0820.2,5.00,0.00,22.3,21.2,00.0,31.2,24.2,08.6,0000.0,0003.68,0010.45,0003.02
2022-11-23 15:52:00,,0820.2,5.01,0.00,22.3,21.2,00.0,31.2,24.2,08.7,0000.0,0003.70,0010.46,0003.06
2022-11-23 15:53:00,,0820.2,4.99,0.00,22.3,21.3,00.0,31.2,24.2,07.4,0000.0,0003.65,0010.14,0002.99
2022-11-23 15:54:00,,0820.1,5.00,0.00,22.4,21.3,00.0,31.2,24.3,06.8,0000.0,0003.55,0010.28,0002.87
2022-11-23 15:55:00,,0820.0,4.99,0.00,22.4,21.3,00.0,31.2,24.3,06.4,0000.0,0003.48,0010.19,0002.80
2022-11-23 15:56:00,,0820.1,5.00,0.00,22.4,21.3,00.0,31.2,24.3,06.1,0000.0,0003.34,0009.89,0002.69
2022-11-23 15:57:00,,0820.2,5.01,0.00,22.4,21.3,00.0,31.2,24.3,06.8,0000.0,0003.26,0009.75,0002.62
2022-11-23 15:58:00,,0820.2,5.00,0.00,22.4,21.3,00.0,31.2,24.3,06.8,0000.0,0003.13,0008.95,0002.44
2022-11-23 15:59:00,,0820.2,4.99,0.00,22.4,21.3,00.0,31.2,24.3,06.7,0000.0,0002.94,0009.00,0002.24
